Regional Weather Roundup
Issued by NWS Binghamton, NY

Home | Current Version | Previous Version | Text Only | Print | Product List | Glossary On
Versions: 1 2 3 4 5 6 7 8 9 10 11 12 13 14 15 16 17 18 19 20 21 22 23 24 25 26 27 28 29 30 31 32 33 34 35 36 37 38 39 40 41 42 43 44 45 46 47 48 49 50
000
ASUS41 KBGM 020210
RWRBGM
RWRBGM
BINGHAMTON REGIONAL WEATHER ROUNDUP
NATIONAL WEATHER SERVICE BINGHAMTON NY
1000 PM EDT WED JUL 01 2015

Note: "fair" indicates few or no clouds below 12,000 feet with no
significant weather and/or obstructions to visibility.

* = Station(s) that does not report precipitation, such as rain,
snow, etc, also no thunder or fog.

!NYZ009-015>018-022>025-036-037-044>046-055>057-062-020300
...CENTRAL NEW YORK...

CITY           SKY/WX    TMP DP  RH WIND       PRES   REMARKS
BINGHAMTON     CLEAR     62  56  80 W8        29.91R
CORTLAND       MOCLDY    61  59  94 SW3       29.91R
DANSVILLE      CLOUDY    67  59  75 VRB3      29.91R
ELMIRA         PTCLDY    63  59  87 NW5       29.90R
ITHACA         CLOUDY    65  59  81 W6        29.92R
MONTICELLO     CLEAR     63  59  88 W7        29.91R
NORWICH        CLOUDY    63  59  88 CALM      29.90R
PENN YAN       CLOUDY    65  59  81 W3        29.90R
ROME           MOCLDY    64  57  78 W6        29.85R
SIDNEY         CLOUDY    63  63 100 CALM      29.90R
SYRACUSE       PTCLDY    63  57  81 SW7       29.85R
$$

!PAZ038>040-043-044-047-048-072-020300
...NORTHEAST PENNSYLVANIA...

CITY           SKY/WX    TMP DP  RH WIND       PRES   REMARKS
HAZLETON       CLEAR     68  55  64 W3        29.96R
SCRANTON       CLEAR     65  60  84 CALM      29.90R
TOWANDA*       CLEAR     64  59  82 MISG      29.91R
$$
&&
KEY
WCI = WIND CHILL INDEX
VSB = VISIBILITY
HX  = HEAT INDEX
$$



USA.gov is the U.S. government's official web portal to all federal, state and local government web resources and services.